Year,Month,Day,Hour,Minute,Value (Times are PST for temperature in C)
2016,01,28,00,00,10.30
2016,01,28,00,01,10.30
2016,01,28,00,02,10.30
2016,01,28,00,03,10.30
2016,01,28,00,04,10.30
2016,01,28,00,05,10.20
2016,01,28,00,06,10.20
2016,01,28,00,07,10.20
2016,01,28,00,08,10.20
2016,01,28,00,09,10.20
2016,01,28,00,10,10.20
2016,01,28,00,11,10.20
2016,01,28,00,12,10.20
2016,01,28,00,13,10.20
2016,01,28,00,14,10.20
2016,01,28,00,15,10.20
2016,01,28,00,16,10.20
2016,01,28,00,17,10.20
2016,01,28,00,18,10.20
2016,01,28,00,19,10.20
2016,01,28,00,20,10.20
2016,01,28,00,21,10.20
2016,01,28,00,22,10.20
2016,01,28,00,23,10.20
2016,01,28,00,24,10.20
2016,01,28,00,25,10.20
2016,01,28,00,26,10.20
2016,01,28,00,27,10.20
2016,01,28,00,28,10.20
2016,01,28,00,29,10.20
2016,01,28,00,30,10.20
2016,01,28,00,31,10.20
2016,01,28,00,32,10.20
2016,01,28,00,33,10.20
2016,01,28,00,34,10.20
2016,01,28,00,35,10.20
2016,01,28,00,36,10.10
2016,01,28,00,37,10.10
2016,01,28,00,38,10.10
2016,01,28,00,39,10.10
2016,01,28,00,40,10.10
2016,01,28,00,41,10.10
2016,01,28,00,42,10.10
2016,01,28,00,43,10.10
2016,01,28,00,44,10.10
2016,01,28,00,45,10.10
2016,01,28,00,46,10.10
2016,01,28,00,47,10.10
2016,01,28,00,48,10.00
2016,01,28,00,49,10.00
2016,01,28,00,50,10.00
2016,01,28,00,51,10.00
2016,01,28,00,52,10.00
2016,01,28,00,53,10.00
2016,01,28,00,54,10.00
2016,01,28,00,55,10.00
2016,01,28,00,56,10.00
2016,01,28,00,57,10.00
2016,01,28,00,58,10.00
2016,01,28,00,59,10.00
2016,01,28,01,00,10.00
2016,01,28,01,01,10.10
2016,01,28,01,02,10.10
2016,01,28,01,03,10.10
2016,01,28,01,04,10.10
2016,01,28,01,05,10.10
2016,01,28,01,06,10.20
2016,01,28,01,07,10.20
2016,01,28,01,08,10.20
2016,01,28,01,09,10.20
2016,01,28,01,10,10.20
2016,01,28,01,11,10.20
2016,01,28,01,12,10.20
2016,01,28,01,13,10.20
2016,01,28,01,14,10.20
2016,01,28,01,15,10.20
2016,01,28,01,16,10.20
2016,01,28,01,17,10.20
2016,01,28,01,18,10.20
2016,01,28,01,19,10.20
2016,01,28,01,20,10.20
2016,01,28,01,21,10.20
2016,01,28,01,22,10.20
2016,01,28,01,23,10.20
2016,01,28,01,24,10.20
2016,01,28,01,25,10.20
2016,01,28,01,26,10.20
2016,01,28,01,27,10.20
2016,01,28,01,28,10.20
2016,01,28,01,29,10.20
2016,01,28,01,30,10.20
2016,01,28,01,31,10.20
2016,01,28,01,32,10.20
2016,01,28,01,33,10.20
2016,01,28,01,34,10.20
2016,01,28,01,35,10.30
2016,01,28,01,36,10.30
2016,01,28,01,37,10.30
2016,01,28,01,38,10.30
2016,01,28,01,39,10.30
2016,01,28,01,40,10.30
2016,01,28,01,41,10.30
2016,01,28,01,42,10.30
2016,01,28,01,43,10.30
2016,01,28,01,44,10.30
2016,01,28,01,45,10.30
2016,01,28,01,46,10.30
2016,01,28,01,47,10.30
2016,01,28,01,48,10.30
2016,01,28,01,49,10.30
2016,01,28,01,50,10.30
2016,01,28,01,51,10.30
2016,01,28,01,52,10.30
2016,01,28,01,53,10.30
2016,01,28,01,54,10.30
2016,01,28,01,55,10.30
2016,01,28,01,56,10.30
2016,01,28,01,57,10.30
2016,01,28,01,58,10.30
2016,01,28,01,59,10.30
2016,01,28,02,00,10.30
2016,01,28,02,01,10.30
2016,01,28,02,02,10.30
2016,01,28,02,03,10.30
2016,01,28,02,04,10.30
2016,01,28,02,05,10.30
2016,01,28,02,06,10.30
2016,01,28,02,07,10.30
2016,01,28,02,08,10.30
2016,01,28,02,09,10.30
2016,01,28,02,10,10.30
2016,01,28,02,11,10.30
2016,01,28,02,12,10.30
2016,01,28,02,13,10.30
2016,01,28,02,14,10.30
2016,01,28,02,15,10.30
2016,01,28,02,16,10.30
2016,01,28,02,17,10.30
2016,01,28,02,18,10.30
2016,01,28,02,19,10.30
2016,01,28,02,20,10.30
2016,01,28,02,21,10.30
2016,01,28,02,22,10.30
2016,01,28,02,23,10.30
2016,01,28,02,24,10.30
2016,01,28,02,25,10.30
2016,01,28,02,26,10.30
2016,01,28,02,27,10.30
2016,01,28,02,28,10.30
2016,01,28,02,29,10.30
2016,01,28,02,30,10.30
2016,01,28,02,31,10.30
2016,01,28,02,32,10.30
2016,01,28,02,33,10.30
2016,01,28,02,34,10.30
2016,01,28,02,35,10.30
2016,01,28,02,36,10.30
2016,01,28,02,37,10.30
2016,01,28,02,38,10.40
2016,01,28,02,39,10.40
2016,01,28,02,40,10.40
2016,01,28,02,41,10.40
2016,01,28,02,42,10.40
2016,01,28,02,43,10.40
2016,01,28,02,44,10.40
2016,01,28,02,45,10.40
2016,01,28,02,46,10.40
2016,01,28,02,47,10.40
2016,01,28,02,48,10.40
2016,01,28,02,49,10.40
2016,01,28,02,50,10.40
2016,01,28,02,51,10.40
2016,01,28,02,52,10.40
2016,01,28,02,53,10.40
2016,01,28,02,54,10.40
2016,01,28,02,55,10.40
2016,01,28,02,56,10.40
2016,01,28,02,57,10.40
2016,01,28,02,58,10.40
2016,01,28,02,59,10.40
2016,01,28,03,00,10.40
2016,01,28,03,01,10.40
2016,01,28,03,02,10.40
2016,01,28,03,03,10.40
2016,01,28,03,04,10.40
2016,01,28,03,05,10.40
2016,01,28,03,06,10.40
2016,01,28,03,07,10.40
2016,01,28,03,08,10.40
2016,01,28,03,09,10.40
2016,01,28,03,10,10.50
2016,01,28,03,11,10.50
2016,01,28,03,12,10.50
2016,01,28,03,13,10.50
2016,01,28,03,14,10.50
2016,01,28,03,15,10.50
2016,01,28,03,16,10.50
2016,01,28,03,17,10.50
2016,01,28,03,18,10.50
2016,01,28,03,19,10.50
2016,01,28,03,20,10.50
2016,01,28,03,21,10.50
2016,01,28,03,22,10.50
2016,01,28,03,23,10.50
2016,01,28,03,24,10.50
2016,01,28,03,25,10.50
2016,01,28,03,26,10.50
2016,01,28,03,27,10.60
2016,01,28,03,28,10.60
2016,01,28,03,29,10.60
2016,01,28,03,30,10.60
2016,01,28,03,31,10.60
2016,01,28,03,32,10.60
2016,01,28,03,33,10.60
2016,01,28,03,34,10.60
2016,01,28,03,35,10.60
2016,01,28,03,36,10.60
2016,01,28,03,37,10.60
2016,01,28,03,38,10.60
2016,01,28,03,39,10.60
2016,01,28,03,40,10.60
2016,01,28,03,41,10.60
2016,01,28,03,42,10.60
2016,01,28,03,43,10.60
2016,01,28,03,44,10.70
2016,01,28,03,45,10.70
2016,01,28,03,46,10.70
2016,01,28,03,47,10.70
2016,01,28,03,48,10.70
2016,01,28,03,49,10.70
2016,01,28,03,50,10.80
2016,01,28,03,51,10.80
2016,01,28,03,52,10.80
2016,01,28,03,53,10.80
2016,01,28,03,54,10.80
2016,01,28,03,55,10.80
2016,01,28,03,56,10.80
2016,01,28,03,57,10.80
2016,01,28,03,58,10.80
2016,01,28,03,59,10.80
2016,01,28,04,00,10.80
2016,01,28,04,01,10.80
2016,01,28,04,02,10.80
2016,01,28,04,03,10.80
2016,01,28,04,04,10.80
2016,01,28,04,05,10.90
2016,01,28,04,06,10.90
2016,01,28,04,07,10.90
2016,01,28,04,08,10.90
2016,01,28,04,09,10.80
2016,01,28,04,10,10.80
2016,01,28,04,11,10.80
2016,01,28,04,12,10.80
2016,01,28,04,13,10.80
2016,01,28,04,14,10.80
2016,01,28,04,15,10.80
2016,01,28,04,16,10.90
2016,01,28,04,17,10.90
2016,01,28,04,18,10.90
2016,01,28,04,19,10.90
2016,01,28,04,20,10.90
2016,01,28,04,21,10.90
2016,01,28,04,22,10.90
2016,01,28,04,23,10.90
2016,01,28,04,24,10.90
2016,01,28,04,25,10.90
2016,01,28,04,26,10.90
2016,01,28,04,27,10.90
2016,01,28,04,28,11.00
2016,01,28,04,29,11.00
2016,01,28,04,30,11.00
2016,01,28,04,31,11.00
2016,01,28,04,32,11.00
2016,01,28,04,33,11.00
2016,01,28,04,34,11.00
2016,01,28,04,35,11.00
2016,01,28,04,36,11.00
2016,01,28,04,37,11.00
2016,01,28,04,38,11.00
2016,01,28,04,39,11.00
2016,01,28,04,40,11.00
2016,01,28,04,41,10.90
2016,01,28,04,42,11.00
2016,01,28,04,43,11.00
2016,01,28,04,44,11.00
2016,01,28,04,45,11.00
2016,01,28,04,46,11.00
2016,01,28,04,47,11.10
2016,01,28,04,48,11.00
2016,01,28,04,49,11.00
2016,01,28,04,50,11.00
2016,01,28,04,51,11.00
2016,01,28,04,52,11.00
2016,01,28,04,53,11.00
2016,01,28,04,54,10.90
2016,01,28,04,55,10.90
2016,01,28,04,56,10.90
2016,01,28,04,57,10.90
2016,01,28,04,58,10.90
2016,01,28,04,59,10.80
2016,01,28,05,00,10.80
2016,01,28,05,01,10.80
2016,01,28,05,02,10.80
2016,01,28,05,03,10.90
2016,01,28,05,04,10.90
2016,01,28,05,05,10.90
2016,01,28,05,06,10.90
2016,01,28,05,07,10.90
2016,01,28,05,08,10.90
2016,01,28,05,09,10.90
2016,01,28,05,10,10.90
2016,01,28,05,11,10.90
2016,01,28,05,12,10.90
2016,01,28,05,13,10.90
2016,01,28,05,14,10.90
2016,01,28,05,15,10.90
2016,01,28,05,16,10.90
2016,01,28,05,17,10.90
2016,01,28,05,18,10.90
2016,01,28,05,19,10.90
2016,01,28,05,20,11.00
2016,01,28,05,21,10.90
2016,01,28,05,22,10.90
2016,01,28,05,23,10.90
2016,01,28,05,24,10.90
2016,01,28,05,25,10.90
2016,01,28,05,26,10.90
2016,01,28,05,27,10.80
2016,01,28,05,28,10.80
2016,01,28,05,29,10.80
2016,01,28,05,30,10.70
2016,01,28,05,31,10.70
2016,01,28,05,32,10.60
2016,01,28,05,33,10.60
2016,01,28,05,34,10.60
2016,01,28,05,35,10.60
2016,01,28,05,36,10.60
2016,01,28,05,37,10.50
2016,01,28,05,38,10.50
2016,01,28,05,39,10.50
2016,01,28,05,40,10.40
2016,01,28,05,41,10.40
2016,01,28,05,42,10.40
2016,01,28,05,43,10.40
2016,01,28,05,44,10.30
2016,01,28,05,45,10.30
2016,01,28,05,46,10.30
2016,01,28,05,47,10.30
2016,01,28,05,48,10.30
2016,01,28,05,49,10.30
2016,01,28,05,50,10.20
2016,01,28,05,51,10.20
2016,01,28,05,52,10.20
2016,01,28,05,53,10.10
2016,01,28,05,54,10.10
2016,01,28,05,55,10.10
2016,01,28,05,56,10.10
2016,01,28,05,57,10.00
2016,01,28,05,58,10.00
2016,01,28,05,59,10.00
2016,01,28,06,00,10.00
2016,01,28,06,01,10.10
2016,01,28,06,02,10.10
2016,01,28,06,03,10.20
2016,01,28,06,04,10.20
2016,01,28,06,05,10.20
2016,01,28,06,06,10.20
2016,01,28,06,07,10.10
2016,01,28,06,08,10.10
2016,01,28,06,09,10.10
2016,01,28,06,10,10.00
2016,01,28,06,11,10.00
2016,01,28,06,12,9.90
2016,01,28,06,13,9.90
2016,01,28,06,14,9.80
2016,01,28,06,15,9.80
2016,01,28,06,16,9.80
2016,01,28,06,17,9.80
2016,01,28,06,18,9.80
2016,01,28,06,19,9.70
2016,01,28,06,20,9.70
2016,01,28,06,21,9.70
2016,01,28,06,22,9.60
2016,01,28,06,23,9.60
2016,01,28,06,24,9.60
2016,01,28,06,25,9.60
2016,01,28,06,26,9.60
2016,01,28,06,27,9.50
2016,01,28,06,28,9.50
2016,01,28,06,29,9.50
2016,01,28,06,30,9.40
2016,01,28,06,31,9.40
2016,01,28,06,32,9.50
2016,01,28,06,33,9.50
2016,01,28,06,34,9.50
2016,01,28,06,35,9.50
2016,01,28,06,36,9.60
2016,01,28,06,37,9.60
2016,01,28,06,38,9.60
2016,01,28,06,39,9.60
2016,01,28,06,40,9.60
2016,01,28,06,41,9.60
2016,01,28,06,42,9.60
2016,01,28,06,43,9.60
2016,01,28,06,44,9.70
2016,01,28,06,45,9.70
2016,01,28,06,46,9.80
2016,01,28,06,47,9.90
2016,01,28,06,48,9.90
2016,01,28,06,49,10.00
2016,01,28,06,50,10.00
2016,01,28,06,51,10.00
2016,01,28,06,52,10.00
2016,01,28,06,53,9.90
2016,01,28,06,54,9.90
2016,01,28,06,55,9.90
2016,01,28,06,56,9.90
2016,01,28,06,57,10.00
2016,01,28,06,58,10.10
2016,01,28,06,59,10.20
2016,01,28,07,00,10.30
2016,01,28,07,01,10.50
2016,01,28,07,02,10.70
2016,01,28,07,03,10.70
2016,01,28,07,04,10.70
2016,01,28,07,05,10.60
2016,01,28,07,06,10.60
2016,01,28,07,07,10.50
2016,01,28,07,08,10.40
2016,01,28,07,09,10.30
2016,01,28,07,10,10.30
2016,01,28,07,11,10.30
2016,01,28,07,12,10.30
2016,01,28,07,13,10.30
2016,01,28,07,14,10.30
2016,01,28,07,15,10.30
2016,01,28,07,16,10.30
2016,01,28,07,17,10.30
2016,01,28,07,18,10.40
2016,01,28,07,19,10.40
2016,01,28,07,20,10.40
2016,01,28,07,21,10.40
2016,01,28,07,22,10.40
2016,01,28,07,23,10.50
2016,01,28,07,24,10.50
2016,01,28,07,25,10.40
2016,01,28,07,26,10.40
2016,01,28,07,27,10.40
2016,01,28,07,28,10.40
2016,01,28,07,29,10.40
2016,01,28,07,30,10.40
2016,01,28,07,31,10.40
2016,01,28,07,32,10.40
2016,01,28,07,33,10.40
2016,01,28,07,34,10.40
2016,01,28,07,35,10.50
2016,01,28,07,36,10.50
2016,01,28,07,37,10.50
2016,01,28,07,38,10.50
2016,01,28,07,39,10.40
2016,01,28,07,40,10.40
2016,01,28,07,41,10.40
2016,01,28,07,42,10.30
2016,01,28,07,43,10.30
2016,01,28,07,44,10.20
2016,01,28,07,45,10.20
2016,01,28,07,46,10.20
2016,01,28,07,47,10.20
2016,01,28,07,48,10.20
2016,01,28,07,49,10.30
2016,01,28,07,50,10.40
2016,01,28,07,51,10.40
2016,01,28,07,52,10.50
2016,01,28,07,53,10.50
2016,01,28,07,54,10.60
2016,01,28,07,55,10.60
2016,01,28,07,56,10.60
2016,01,28,07,57,10.60
2016,01,28,07,58,10.60
2016,01,28,07,59,10.50
2016,01,28,08,00,10.50
2016,01,28,08,01,10.50
2016,01,28,08,02,10.60
2016,01,28,08,03,10.70
2016,01,28,08,04,10.80
2016,01,28,08,05,10.80
2016,01,28,08,06,10.90
2016,01,28,08,07,10.90
2016,01,28,08,08,10.90
2016,01,28,08,09,10.80
2016,01,28,08,10,10.80
2016,01,28,08,11,10.80
2016,01,28,08,12,10.70
2016,01,28,08,13,10.70
2016,01,28,08,14,10.70
2016,01,28,08,15,10.70
2016,01,28,08,16,10.70
2016,01,28,08,17,10.70
2016,01,28,08,18,10.70
2016,01,28,08,19,10.70
2016,01,28,08,20,10.70
2016,01,28,08,21,10.60
2016,01,28,08,22,10.60
2016,01,28,08,23,10.60
2016,01,28,08,24,10.70
2016,01,28,08,25,10.70
2016,01,28,08,26,10.70
2016,01,28,08,27,10.70
2016,01,28,08,28,10.80
2016,01,28,08,29,10.80
2016,01,28,08,30,10.90
2016,01,28,08,31,10.90
2016,01,28,08,32,11.00
2016,01,28,08,33,11.10
2016,01,28,08,34,11.10
2016,01,28,08,35,11.10
2016,01,28,08,36,11.10
2016,01,28,08,37,11.00
2016,01,28,08,38,11.00
2016,01,28,08,39,10.90
2016,01,28,08,40,10.90
2016,01,28,08,41,10.90
2016,01,28,08,42,10.90
2016,01,28,08,43,10.80
2016,01,28,08,44,10.70
2016,01,28,08,45,10.70
2016,01,28,08,46,10.60
2016,01,28,08,47,10.50
2016,01,28,08,48,10.40
2016,01,28,08,49,10.40
2016,01,28,08,50,10.30
2016,01,28,08,51,10.30
2016,01,28,08,52,10.30
2016,01,28,08,53,10.20
2016,01,28,08,54,10.10
2016,01,28,08,55,10.10
2016,01,28,08,56,10.00
2016,01,28,08,57,10.00
2016,01,28,08,58,10.00
2016,01,28,08,59,9.90
2016,01,28,09,00,9.90
2016,01,28,09,01,9.90
2016,01,28,09,02,9.90
2016,01,28,09,03,9.90
2016,01,28,09,04,9.90
2016,01,28,09,05,9.90
2016,01,28,09,06,9.90
2016,01,28,09,07,9.80
2016,01,28,09,08,9.90
2016,01,28,09,09,9.90
2016,01,28,09,10,9.90
2016,01,28,09,11,9.90
2016,01,28,09,12,9.90
2016,01,28,09,13,9.90
2016,01,28,09,14,9.90
2016,01,28,09,15,9.90
2016,01,28,09,16,9.90
2016,01,28,09,17,9.90
2016,01,28,09,18,9.90
2016,01,28,09,19,9.90
2016,01,28,09,20,9.90
2016,01,28,09,21,9.90
2016,01,28,09,22,9.90
2016,01,28,09,55,10.10
2016,01,28,09,56,10.10
2016,01,28,09,57,10.10
2016,01,28,09,58,10.20
2016,01,28,09,59,10.40
2016,01,28,10,00,10.50
2016,01,28,10,01,10.70
2016,01,28,10,02,10.80
2016,01,28,10,03,10.80
2016,01,28,10,04,10.80
2016,01,28,10,05,11.20
2016,01,28,10,06,11.40
2016,01,28,10,07,11.40
2016,01,28,10,08,11.50
2016,01,28,10,09,11.50
2016,01,28,10,10,11.60
2016,01,28,10,11,11.60
2016,01,28,10,12,11.60
2016,01,28,10,13,11.60
2016,01,28,10,14,11.60
2016,01,28,10,15,11.60
2016,01,28,10,16,11.60
2016,01,28,10,17,11.60
2016,01,28,10,18,11.60
2016,01,28,10,19,11.60
2016,01,28,10,20,11.60
2016,01,28,10,21,11.70
2016,01,28,10,22,11.70
2016,01,28,10,23,11.70
2016,01,28,10,24,11.70
2016,01,28,10,25,11.70
2016,01,28,10,26,11.70
2016,01,28,10,27,11.70
2016,01,28,10,28,11.70
2016,01,28,10,29,11.70
2016,01,28,10,30,11.70
2016,01,28,10,31,11.70
2016,01,28,10,32,11.70
2016,01,28,10,33,11.80
2016,01,28,10,34,11.80
2016,01,28,10,35,11.80
2016,01,28,10,36,11.80
2016,01,28,10,37,11.80
2016,01,28,10,38,11.90
2016,01,28,10,39,11.90
2016,01,28,10,40,12.00
2016,01,28,10,41,12.00
2016,01,28,10,42,12.00
2016,01,28,10,43,12.00
2016,01,28,10,44,12.00
2016,01,28,10,45,11.90
2016,01,28,10,46,11.90
2016,01,28,10,47,11.90
2016,01,28,10,48,12.00
2016,01,28,10,49,12.00
2016,01,28,10,50,12.00
2016,01,28,10,51,12.10
2016,01,28,10,52,12.10
2016,01,28,10,53,12.10
2016,01,28,10,54,12.20
2016,01,28,10,55,12.20
2016,01,28,10,56,12.30
2016,01,28,10,57,12.30
2016,01,28,10,58,12.30
2016,01,28,10,59,12.40
2016,01,28,11,00,12.40
2016,01,28,11,01,12.40
2016,01,28,11,02,12.40
2016,01,28,11,03,12.40
2016,01,28,11,04,12.40
2016,01,28,11,05,12.50
2016,01,28,11,06,12.50
2016,01,28,11,07,12.50
2016,01,28,11,08,12.60
2016,01,28,11,09,12.60
2016,01,28,11,10,12.60
2016,01,28,11,11,12.70
2016,01,28,11,12,12.70
2016,01,28,11,13,12.70
2016,01,28,11,14,12.70
2016,01,28,11,15,12.70
2016,01,28,11,16,12.70
2016,01,28,11,17,12.70
2016,01,28,11,18,12.60
2016,01,28,11,19,12.60
2016,01,28,11,20,12.60
2016,01,28,11,21,12.60
2016,01,28,11,22,12.60
2016,01,28,11,23,12.50
2016,01,28,11,24,12.50
2016,01,28,11,25,12.40
2016,01,28,11,26,12.40
2016,01,28,11,27,12.40
2016,01,28,11,28,12.40
2016,01,28,11,29,12.40
2016,01,28,11,30,12.40
2016,01,28,11,31,12.40
2016,01,28,11,32,12.40
2016,01,28,11,33,12.40
2016,01,28,11,34,12.40
2016,01,28,11,35,12.40
2016,01,28,11,36,12.40
2016,01,28,14,09,11.60
2016,01,28,14,10,11.50
2016,01,28,14,11,11.50
2016,01,28,14,12,11.50
2016,01,28,14,13,11.40
2016,01,28,14,14,11.40
2016,01,28,14,15,11.40
2016,01,28,14,16,11.40
2016,01,28,14,17,11.40
2016,01,28,14,18,11.50
2016,01,28,14,19,11.50
2016,01,28,14,20,11.60
2016,01,28,14,21,11.60
2016,01,28,14,22,11.60
2016,01,28,14,23,11.60
2016,01,28,14,24,11.70
2016,01,28,14,25,11.70
2016,01,28,14,26,11.70
2016,01,28,14,27,11.70
2016,01,28,14,28,11.70
2016,01,28,14,29,11.70
2016,01,28,14,30,11.70
2016,01,28,14,31,11.70
2016,01,28,14,32,11.70
2016,01,28,14,33,11.70
2016,01,28,14,34,11.70
2016,01,28,14,35,11.70
2016,01,28,14,36,11.70
2016,01,28,14,37,11.70
2016,01,28,14,38,11.70
2016,01,28,14,39,11.80
2016,01,28,14,40,11.80
2016,01,28,14,41,11.80
2016,01,28,14,42,11.90
2016,01,28,14,43,11.90
2016,01,28,14,44,11.90
2016,01,28,14,45,11.90
2016,01,28,14,46,11.90
2016,01,28,14,47,11.90
2016,01,28,14,48,11.90
2016,01,28,14,49,11.90
2016,01,28,14,50,11.90
2016,01,28,14,51,11.90
2016,01,28,14,52,11.90
2016,01,28,14,53,11.90
2016,01,28,14,54,11.90
2016,01,28,14,55,11.90
2016,01,28,14,56,11.80
2016,01,28,14,57,11.80
2016,01,28,14,58,11.90
2016,01,28,14,59,11.90
2016,01,28,15,00,11.90
2016,01,28,15,01,11.90
2016,01,28,15,02,11.90
2016,01,28,15,03,11.90
2016,01,28,15,04,11.90
2016,01,28,15,05,11.90
2016,01,28,15,06,11.90
2016,01,28,15,07,11.90
2016,01,28,15,08,11.90
2016,01,28,15,09,12.00
2016,01,28,15,10,12.00
2016,01,28,15,11,12.00
2016,01,28,15,12,12.10
2016,01,28,15,13,12.10
2016,01,28,15,14,12.10
2016,01,28,15,15,12.10
2016,01,28,15,16,12.10
2016,01,28,15,17,12.10
2016,01,28,15,18,12.10
2016,01,28,15,19,12.00
2016,01,28,15,20,12.00
2016,01,28,15,21,12.00
2016,01,28,15,22,12.00
2016,01,28,15,23,12.00
2016,01,28,15,24,11.90
2016,01,28,15,25,11.90
2016,01,28,15,26,11.90
2016,01,28,15,27,11.90
2016,01,28,15,28,11.90
2016,01,28,15,29,11.90
2016,01,28,15,30,11.90
2016,01,28,15,31,11.90
2016,01,28,15,32,11.90
2016,01,28,15,33,11.90
2016,01,28,15,34,11.90
2016,01,28,15,35,11.80
2016,01,28,15,36,11.80
2016,01,28,15,37,11.70
2016,01,28,15,38,11.70
2016,01,28,15,39,11.70
2016,01,28,15,40,11.60
2016,01,28,15,41,11.60
2016,01,28,15,42,11.50
2016,01,28,15,43,11.50
2016,01,28,15,44,11.40
2016,01,28,15,45,11.40
2016,01,28,15,46,11.40
2016,01,28,15,47,11.40
2016,01,28,15,48,11.40
2016,01,28,15,49,11.40
2016,01,28,15,50,11.30
2016,01,28,15,51,11.30
2016,01,28,15,52,11.30
2016,01,28,15,53,11.30
2016,01,28,15,54,11.30
2016,01,28,15,55,11.30
2016,01,28,15,56,11.20
2016,01,28,15,57,11.20
2016,01,28,15,58,11.10
2016,01,28,15,59,11.00
2016,01,28,16,00,11.00
2016,01,28,16,01,10.90
2016,01,28,16,02,10.80
2016,01,28,16,03,10.80
2016,01,28,16,04,10.80
2016,01,28,16,05,10.80
2016,01,28,16,06,10.70
2016,01,28,16,07,10.70
2016,01,28,16,08,10.60
2016,01,28,16,09,10.60
2016,01,28,16,10,10.60
2016,01,28,16,11,10.50
2016,01,28,16,12,10.50
2016,01,28,16,13,10.40
2016,01,28,16,14,10.40
2016,01,28,16,15,10.30
2016,01,28,16,16,10.20
2016,01,28,16,17,10.20
2016,01,28,16,18,10.20
2016,01,28,16,19,10.10
2016,01,28,16,20,10.10
2016,01,28,16,21,10.00
2016,01,28,16,22,10.00
2016,01,28,16,23,10.00
2016,01,28,16,24,9.90
2016,01,28,16,25,9.90
2016,01,28,16,26,9.90
2016,01,28,16,27,9.90
2016,01,28,16,28,9.90
2016,01,28,16,29,9.90
2016,01,28,16,30,9.90
2016,01,28,16,31,9.90
2016,01,28,16,32,9.80
2016,01,28,16,33,9.80
2016,01,28,16,34,9.80
2016,01,28,16,35,9.80
2016,01,28,16,36,9.70
2016,01,28,16,37,9.70
2016,01,28,16,38,9.70
2016,01,28,16,39,9.70
2016,01,28,16,40,9.70
2016,01,28,16,41,9.70
2016,01,28,16,42,9.60
2016,01,28,16,43,9.60
2016,01,28,16,44,9.60
2016,01,28,16,45,9.60
2016,01,28,16,46,9.60
2016,01,28,16,47,9.60
2016,01,28,16,48,9.60
2016,01,28,16,49,9.60
2016,01,28,16,50,9.70
2016,01,28,16,51,9.70
2016,01,28,16,52,9.70
2016,01,28,16,53,9.70
2016,01,28,16,54,9.70
2016,01,28,16,55,9.60
2016,01,28,16,56,9.60
2016,01,28,16,57,9.60
2016,01,28,16,58,9.60
2016,01,28,16,59,9.60
2016,01,28,17,00,9.50
2016,01,28,17,01,9.50
2016,01,28,17,02,9.50
2016,01,28,17,03,9.50
2016,01,28,17,04,9.50
2016,01,28,17,05,9.50
2016,01,28,17,06,9.40
2016,01,28,17,07,9.40
2016,01,28,17,08,9.40
2016,01,28,17,09,9.30
2016,01,28,17,10,9.30
2016,01,28,17,11,9.30
2016,01,28,17,12,9.30
2016,01,28,17,13,9.30
2016,01,28,17,14,9.30
2016,01,28,17,15,9.30
2016,01,28,17,16,9.30
2016,01,28,17,17,9.30
2016,01,28,17,18,9.30
2016,01,28,17,19,9.40
2016,01,28,17,20,9.40
2016,01,28,17,21,9.40
2016,01,28,17,22,9.40
2016,01,28,17,23,9.50
2016,01,28,17,24,9.40
2016,01,28,17,25,9.40
2016,01,28,17,26,9.40
2016,01,28,17,27,9.40
2016,01,28,17,28,9.40
2016,01,28,17,29,9.40
2016,01,28,17,30,9.40
2016,01,28,17,31,9.40
2016,01,28,17,32,9.30
2016,01,28,17,33,9.30
2016,01,28,17,34,9.30
2016,01,28,17,35,9.30
2016,01,28,17,36,9.30
2016,01,28,17,37,9.20
2016,01,28,17,38,9.20
2016,01,28,17,39,9.20
2016,01,28,17,40,9.20
2016,01,28,17,41,9.20
2016,01,28,17,42,9.20
2016,01,28,17,43,9.20
2016,01,28,17,44,9.20
2016,01,28,17,45,9.20
2016,01,28,17,46,9.20
2016,01,28,17,47,9.20
2016,01,28,17,48,9.20
2016,01,28,17,49,9.20
2016,01,28,17,50,9.20
2016,01,28,17,51,9.20
2016,01,28,17,52,9.20
2016,01,28,17,53,9.10
2016,01,28,17,54,9.10
2016,01,28,17,55,9.10
2016,01,28,17,56,9.10
2016,01,28,17,57,9.00
2016,01,28,17,58,9.00
2016,01,28,17,59,9.00
2016,01,28,18,00,8.90
2016,01,28,18,01,8.80
2016,01,28,18,02,8.80
2016,01,28,18,03,8.80
2016,01,28,18,04,8.70
2016,01,28,18,05,8.60
2016,01,28,18,06,8.60
2016,01,28,18,07,8.50
2016,01,28,18,08,8.40
2016,01,28,18,09,8.40
2016,01,28,18,10,8.30
2016,01,28,18,11,8.30
2016,01,28,18,12,8.30
2016,01,28,18,13,8.20
2016,01,28,18,14,8.20
2016,01,28,18,15,8.10
2016,01,28,18,16,8.10
2016,01,28,18,17,8.00
2016,01,28,18,18,7.90
2016,01,28,18,19,7.90
2016,01,28,18,20,7.90
2016,01,28,18,21,7.90
2016,01,28,18,22,7.80
2016,01,28,18,23,7.80
2016,01,28,18,24,7.70
2016,01,28,18,25,7.70
2016,01,28,18,26,7.60
2016,01,28,18,27,7.60
2016,01,28,18,28,7.60
2016,01,28,18,29,7.50
2016,01,28,18,30,7.40
2016,01,28,18,31,7.40
2016,01,28,18,32,7.40
2016,01,28,18,33,7.40
2016,01,28,18,34,7.40
2016,01,28,18,35,7.30
2016,01,28,18,36,7.30
2016,01,28,18,37,7.20
2016,01,28,18,38,7.20
2016,01,28,18,39,7.20
2016,01,28,18,40,7.20
2016,01,28,18,41,7.20
2016,01,28,18,42,7.10
2016,01,28,18,43,7.10
2016,01,28,18,44,7.10
2016,01,28,18,45,7.10
2016,01,28,18,46,7.10
2016,01,28,18,47,7.10
2016,01,28,18,48,7.00
2016,01,28,18,49,7.00
2016,01,28,18,50,6.90
2016,01,28,18,51,6.90
2016,01,28,18,52,6.90
2016,01,28,18,53,6.90
2016,01,28,18,54,6.90
2016,01,28,18,55,6.90
2016,01,28,18,56,6.90
2016,01,28,18,57,6.80
2016,01,28,18,58,6.80
2016,01,28,18,59,6.80
2016,01,28,19,00,6.80
2016,01,28,19,01,6.70
2016,01,28,19,02,6.70
2016,01,28,19,03,6.70
2016,01,28,19,04,6.70
2016,01,28,19,05,6.70
2016,01,28,19,06,6.70
2016,01,28,19,07,6.70
2016,01,28,19,08,6.70
2016,01,28,19,09,6.70
2016,01,28,19,10,6.70
2016,01,28,19,11,6.60
2016,01,28,19,12,6.60
2016,01,28,19,13,6.60
2016,01,28,19,14,6.60
2016,01,28,19,15,6.50
2016,01,28,19,16,6.50
2016,01,28,19,17,6.60
2016,01,28,19,18,6.60
2016,01,28,19,19,6.60
2016,01,28,19,20,6.60
2016,01,28,19,21,6.60
2016,01,28,19,22,6.50
2016,01,28,19,23,6.50
2016,01,28,19,24,6.50
2016,01,28,19,25,6.60
2016,01,28,19,26,6.60
2016,01,28,19,27,6.60
2016,01,28,19,28,6.60
2016,01,28,19,29,6.60
2016,01,28,19,30,6.60
2016,01,28,19,31,6.60
2016,01,28,19,32,6.60
2016,01,28,19,33,6.60
2016,01,28,19,34,6.60
2016,01,28,19,35,6.60
2016,01,28,19,36,6.60
2016,01,28,19,37,6.60
2016,01,28,19,38,6.60
2016,01,28,19,39,6.60
2016,01,28,19,40,6.60
2016,01,28,19,41,6.60
2016,01,28,19,42,6.60
2016,01,28,19,43,6.50
2016,01,28,19,44,6.50
2016,01,28,19,45,6.50
2016,01,28,19,46,6.40
2016,01,28,19,47,6.40
2016,01,28,19,48,6.30
2016,01,28,19,49,6.20
2016,01,28,19,50,6.20
2016,01,28,19,51,6.10
2016,01,28,19,52,6.10
2016,01,28,19,53,6.10
2016,01,28,19,54,6.10
2016,01,28,19,55,6.10
2016,01,28,19,56,6.10
2016,01,28,19,57,6.00
2016,01,28,19,58,6.00
2016,01,28,19,59,6.00
2016,01,28,20,00,6.00
2016,01,28,20,01,6.00
2016,01,28,20,02,6.10
2016,01,28,20,03,6.10
2016,01,28,20,04,6.10
2016,01,28,20,05,6.10
2016,01,28,20,06,6.10
2016,01,28,20,07,6.10
2016,01,28,20,08,6.00
2016,01,28,20,09,6.00
2016,01,28,20,10,6.00
2016,01,28,20,11,6.00
2016,01,28,20,12,6.00
2016,01,28,20,13,6.00
2016,01,28,20,14,6.00
2016,01,28,20,15,6.00
2016,01,28,20,16,5.90
2016,01,28,20,17,5.90
2016,01,28,20,18,5.90
2016,01,28,20,19,5.90
2016,01,28,20,20,5.90
2016,01,28,20,21,5.90
2016,01,28,20,22,5.90
2016,01,28,20,23,5.90
2016,01,28,20,24,5.90
2016,01,28,20,25,5.90
2016,01,28,20,26,5.90
2016,01,28,20,27,5.90
2016,01,28,20,28,5.90
2016,01,28,20,29,5.90
2016,01,28,20,30,5.90
2016,01,28,20,31,5.90
2016,01,28,20,32,5.90
2016,01,28,20,33,5.90
2016,01,28,20,34,5.90
2016,01,28,20,35,5.90
2016,01,28,20,36,5.90
2016,01,28,20,37,5.80